Flag for U.S.A. Weather past 2 weeks in Hampton, Virginia, U.S.A.

Now
77 °F

Passing clouds.


Feels Like: 79 °F
Forecast: 69 / 79 °F
Wind: 6 mph from North

Location: Langley Air Force Base

Current Time: Sep 16, 2014 at 5:57:27 PM

Latest Report: Sep 16, 2014 at 4:58 PM


Visibility: 10 mi

Pressure: 29.98 "Hg

Humidity: 64%

Dew point: 64 °F

Location of HamptonLocation

Historic Weather in Hampton — Graph

°F

Hampton temperature yesterday

Maximum temperature yesterday: 73 °F (at 2:58 PM)
Minimum temperature yesterday: 62 °F (at 12:58 AM)
Average temperature yesterday: 68 °F

Past Weeks' High & Low Weather Summary

 TemperatureHumidityPressure
High96 °F (Sep 2, 2:58 PM)100% (Sep 2, 3:58 AM)30.29 "Hg (Sep 2, 3:58 AM)
Low62 °F (Sep 14, 11:58 PM)41% (Sep 2, 4:58 PM)29.91 "Hg (Sep 2, 5:58 PM)
Average76 °F83%30.08 "Hg
* Reported Sep 1 4:58 PM — Sep 16 4:58 PM, Hampton, Weather by CustomWeather, © 2014

Note: Actual official high and low records may vary slightly from our data, if they occured in-between our weather recording intervals... More about our weather records

Advertising

Hampton weather history for previous 24 hours

 ConditionsComfort  
Time TempWeatherWind HumidityBarometerVisibility
4:58 PM
Sep 16
77 °FPassing clouds.6 mph64%29.98 "Hg10 mi
3:58 PM76 °FPartly sunny.5 mph67%29.99 "Hg10 mi
2:58 PM78 °FPartly sunny.7 mph62%29.99 "Hg10 mi
1:58 PM78 °FPartly sunny.2 mph59%30.00 "Hg10 mi
12:58 PM77 °FBroken clouds.5 mph60%30.01 "Hg10 mi
11:58 AM77 °FSunny.8 mph53%30.03 "Hg10 mi
10:58 AM75 °FSunny.6 mph65%30.03 "Hg10 mi
9:58 AM73 °FScattered clouds.6 mph79%30.05 "Hg10 mi
8:58 AM71 °FPartly sunny.8 mph92%30.05 "Hg10 mi
7:58 AM70 °FSunny.9 mph96%30.05 "Hg10 mi
6:58 AM69 °FPassing clouds.9 mph97%30.04 "Hg10 mi
5:58 AM69 °FOvercast.8 mph95%30.03 "Hg10 mi
4:58 AM68 °FMostly cloudy.3 mph93%30.04 "Hg10 mi
3:58 AM68 °FMostly cloudy.3 mph86%30.05 "Hg10 mi
2:58 AM68 °FPassing clouds.7 mph86%30.06 "Hg10 mi
1:58 AM68 °FPassing clouds.8 mph83%30.07 "Hg10 mi
12:58 AM68 °FClear.5 mph82%30.08 "Hg10 mi
11:58 PM
Sep 15
67 °FPartly cloudy.3 mph88%30.11 "Hg10 mi
10:58 PM67 °FPassing clouds.2 mph86%30.14 "Hg10 mi
9:58 PM67 °FPassing clouds.3 mph82%30.14 "Hg10 mi
8:58 PM68 °FMostly cloudy.6 mph76%30.15 "Hg10 mi
7:58 PM69 °FOvercast.6 mph72%30.14 "Hg10 mi
6:58 PM70 °FOvercast.10 mph69%30.15 "Hg10 mi
5:58 PM70 °FMostly cloudy.6 mph68%30.15 "Hg10 mi
Weather by CustomWeather, © 2014

See weather overviewHow to use our weather pages